Location: Erlenbrunn
(49.1717°N, 7.6142°E)
Time: 11:13:48
(UTC+00:00)

SKYMED 2 - Pass Details

Date: 25 November 2020
Orbit: 621 x 623 km, 97.9° (Epoch: 26 January)

Event Time Altitude Azimuth Distance (km) Brightness Sun altitude
Exits shadow 17:58:01 26° 7° (N) 1,257 5.0 -22.3°
Maximum altitude 18:00:28 75° 286° (WNW) 651 3.7 -22.7°
Drops below altitude 10° 18:04:48 10° 201° (SSW) 1,992 6.5 -23.4°
Sets 18:06:58 0° 200° (SSW) 2,893 7.3 -23.8°
